TimeAKST,TemperatureF,Dew PointF,Humidity,Sea Level PressureIn,VisibilityMPH,Wind Direction,Wind SpeedMPH,Gust SpeedMPH,PrecipitationIn,Events,Conditions,WindDirDegrees,DateUTC
12:16 AM,-2.2,-22.0,39,29.90,10.0,SW,3.5,-,N/A,,Mostly Cloudy,230,2013-01-16 09:16:00
12:36 AM,-5.8,-5.8,100,29.91,10.0,Calm,Calm,-,N/A,,Mostly Cloudy,0,2013-01-16 09:36:00
12:56 AM,-7.6,-23.8,45,29.92,10.0,Calm,Calm,-,N/A,,Overcast,0,2013-01-16 09:56:00
1:16 AM,-7.6,-9999,N/A,29.93,10.0,Calm,Calm,-,N/A,,Scattered Clouds,0,2013-01-16 10:16:00
1:36 AM,-7.6,-27.4,38,29.93,10.0,Calm,Calm,-,N/A,,Clear,0,2013-01-16 10:36:00
1:56 AM,-9.4,-9.4,100,29.93,10.0,Calm,Calm,-,N/A,,Clear,0,2013-01-16 10:56:00
2:16 AM,-9.4,-20.2,59,29.93,10.0,Calm,Calm,-,N/A,,Clear,0,2013-01-16 11:16:00
3:16 AM,-11.2,-25.6,49,29.95,10.0,Calm,Calm,-,N/A,,Clear,0,2013-01-16 12:16:00
3:36 AM,-16.6,-23.8,70,29.95,9.0,Calm,Calm,-,N/A,,Clear,0,2013-01-16 12:36:00
3:56 AM,-18.4,-18.4,100,29.96,10.0,Calm,Calm,-,N/A,,Clear,0,2013-01-16 12:56:00
4:16 AM,-16.6,-23.8,70,29.96,10.0,Calm,Calm,-,N/A,,Clear,0,2013-01-16 13:16:00
4:36 AM,-18.4,-9999,N/A,29.96,10.0,Calm,Calm,-,N/A,,Clear,0,2013-01-16 13:36:00
4:56 AM,-18.4,-23.8,76,29.96,9.0,Calm,Calm,-,N/A,,Mostly Cloudy,0,2013-01-16 13:56:00
5:16 AM,-16.6,-9999,N/A,29.96,7.0,Calm,Calm,-,N/A,,Overcast,0,2013-01-16 14:16:00
5:36 AM,-18.4,-9999,N/A,29.96,5.0,Calm,Calm,-,N/A,,Mostly Cloudy,0,2013-01-16 14:36:00
5:56 AM,-18.4,-9999,N/A,29.96,7.0,Calm,Calm,-,N/A,,Partly Cloudy,0,2013-01-16 14:56:00
6:16 AM,-16.6,-20.2,84,29.96,8.0,Calm,Calm,-,N/A,,Partly Cloudy,0,2013-01-16 15:16:00
6:36 AM,-22.0,-9999,N/A,29.97,10.0,Calm,Calm,-,N/A,,Clear,0,2013-01-16 15:36:00
6:56 AM,-18.4,-63.4,8,29.97,10.0,Calm,Calm,-,N/A,,Clear,0,2013-01-16 15:56:00
7:16 AM,-18.4,-9999,N/A,29.97,10.0,Calm,Calm,-,N/A,,Clear,0,2013-01-16 16:16:00
7:36 AM,-20.2,-9999,N/A,29.97,10.0,Calm,Calm,-,N/A,,Clear,0,2013-01-16 16:36:00
7:56 AM,-18.4,-9999,N/A,29.97,10.0,Calm,Calm,-,N/A,,Clear,0,2013-01-16 16:56:00
8:16 AM,-20.2,-9999,N/A,29.97,9.0,Calm,Calm,-,N/A,,Clear,0,2013-01-16 17:16:00
8:36 AM,-20.2,-9999,N/A,29.97,10.0,Calm,Calm,-,N/A,,Mostly Cloudy,0,2013-01-16 17:36:00
8:56 AM,-22.0,-9999,N/A,29.97,10.0,Calm,Calm,-,N/A,,Scattered Clouds,0,2013-01-16 17:56:00
9:16 AM,-20.2,-9999,N/A,29.97,10.0,Calm,Calm,-,N/A,,Clear,0,2013-01-16 18:16:00
9:36 AM,-18.4,-9999,N/A,29.97,10.0,Calm,Calm,-,N/A,,Clear,0,2013-01-16 18:36:00
9:56 AM,-20.2,-9999,N/A,29.97,10.0,Calm,Calm,-,N/A,,Partly Cloudy,0,2013-01-16 18:56:00
10:16 AM,-23.8,-9999,N/A,29.97,10.0,Calm,Calm,-,N/A,,Partly Cloudy,0,2013-01-16 19:16:00
10:36 AM,-20.2,-9999,N/A,29.98,10.0,Calm,Calm,-,N/A,,Partly Cloudy,0,2013-01-16 19:36:00
10:56 AM,-18.4,-9999,N/A,29.98,10.0,Calm,Calm,-,N/A,,Clear,0,2013-01-16 19:56:00
11:16 AM,-22.0,-27.4,76,29.98,10.0,Calm,Calm,-,N/A,,Mostly Cloudy,0,2013-01-16 20:16:00
11:36 AM,-23.8,-9999,N/A,29.98,10.0,Calm,Calm,-,N/A,,Mostly Cloudy,0,2013-01-16 20:36:00
11:56 AM,-20.2,-9999,N/A,29.97,10.0,Calm,Calm,-,N/A,,Mostly Cloudy,0,2013-01-16 20:56:00
12:16 PM,-22.0,-9999,N/A,29.98,9.0,Calm,Calm,-,N/A,,Overcast,0,2013-01-16 21:16:00
12:36 PM,-22.0,-9999,N/A,29.98,8.0,Calm,Calm,-,N/A,,Overcast,0,2013-01-16 21:36:00
12:56 PM,-20.2,-9999,N/A,29.98,10.0,Calm,Calm,-,N/A,,Overcast,0,2013-01-16 21:56:00
1:16 PM,-18.4,-9999,N/A,29.98,8.0,Calm,Calm,-,N/A,,Overcast,0,2013-01-16 22:16:00
1:36 PM,-20.2,-9999,N/A,29.98,8.0,Calm,Calm,-,N/A,,Overcast,0,2013-01-16 22:36:00
1:56 PM,-18.4,-9999,N/A,29.97,10.0,Calm,Calm,-,N/A,,Overcast,0,2013-01-16 22:56:00
2:16 PM,-20.2,-9999,N/A,29.97,10.0,Calm,Calm,-,N/A,,Scattered Clouds,0,2013-01-16 23:16:00
2:36 PM,-23.8,-9999,N/A,29.97,10.0,Calm,Calm,-,N/A,,Clear,0,2013-01-16 23:36:00
2:56 PM,-22.0,-9999,N/A,29.96,9.0,Calm,Calm,-,N/A,,Clear,0,2013-01-16 23:56:00
3:16 PM,-22.0,-9999,N/A,29.96,8.0,Calm,Calm,-,N/A,,Clear,0,2013-01-17 00:16:00
3:36 PM,-23.8,-9999,N/A,29.95,7.0,Calm,Calm,-,N/A,,Partly Cloudy,0,2013-01-17 00:36:00
3:56 PM,-23.8,-9999,N/A,29.95,10.0,Calm,Calm,-,N/A,,Clear,0,2013-01-17 00:56:00
4:16 PM,-23.8,-9999,N/A,29.95,10.0,Calm,Calm,-,N/A,,Clear,0,2013-01-17 01:16:00
4:36 PM,-23.8,-9999,N/A,29.95,10.0,Calm,Calm,-,N/A,,Clear,0,2013-01-17 01:36:00
4:56 PM,-25.6,-9999,N/A,29.94,10.0,Calm,Calm,-,N/A,,Partly Cloudy,0,2013-01-17 01:56:00
5:16 PM,-23.8,-9999,N/A,29.94,9.0,Calm,Calm,-,N/A,,Partly Cloudy,0,2013-01-17 02:16:00
5:36 PM,-25.6,-9999,N/A,29.94,7.0,Calm,Calm,-,N/A,,Clear,0,2013-01-17 02:36:00
5:56 PM,-23.8,-9999,N/A,29.94,4.0,Calm,Calm,-,N/A,,Clear,0,2013-01-17 02:56:00
6:16 PM,-22.0,-9999,N/A,29.94,10.0,Calm,Calm,-,N/A,,Clear,0,2013-01-17 03:16:00
6:36 PM,-23.8,-9999,N/A,29.94,10.0,Calm,Calm,-,N/A,,Mostly Cloudy,0,2013-01-17 03:36:00
6:56 PM,-23.8,-9999,N/A,29.94,10.0,Calm,Calm,-,N/A,,Partly Cloudy,0,2013-01-17 03:56:00
7:16 PM,-23.8,-9999,N/A,29.94,10.0,Calm,Calm,-,N/A,,Partly Cloudy,0,2013-01-17 04:16:00
7:36 PM,-23.8,-9999,N/A,29.95,10.0,Calm,Calm,-,N/A,,Partly Cloudy,0,2013-01-17 04:36:00
7:56 PM,-27.4,-9999,N/A,29.95,10.0,Calm,Calm,-,N/A,,Scattered Clouds,0,2013-01-17 04:56:00
8:16 PM,-23.8,-9999,N/A,29.94,10.0,Calm,Calm,-,N/A,,Mostly Cloudy,0,2013-01-17 05:16:00
8:36 PM,-22.0,-9999,N/A,29.94,10.0,Calm,Calm,-,N/A,,Partly Cloudy,0,2013-01-17 05:36:00
8:56 PM,-25.6,-9999,N/A,29.94,8.0,Calm,Calm,-,N/A,,Clear,0,2013-01-17 05:56:00
9:16 PM,-25.6,-9999,N/A,29.94,9.0,Calm,Calm,-,N/A,,Clear,0,2013-01-17 06:16:00
9:36 PM,-27.4,-9999,N/A,29.94,9.0,Calm,Calm,-,N/A,,Clear,0,2013-01-17 06:36:00
9:56 PM,-25.6,-9999,N/A,29.94,10.0,Calm,Calm,-,N/A,,Clear,0,2013-01-17 06:56:00
10:16 PM,-25.6,-9999,N/A,29.93,10.0,Calm,Calm,-,N/A,,Clear,0,2013-01-17 07:16:00
10:36 PM,-27.4,-9999,N/A,29.93,10.0,Calm,Calm,-,N/A,,Clear,0,2013-01-17 07:36:00
10:56 PM,-25.6,-9999,N/A,29.93,10.0,Calm,Calm,-,N/A,,Clear,0,2013-01-17 07:56:00
11:16 PM,-27.4,-9999,N/A,29.92,9.0,Calm,Calm,-,N/A,,Clear,0,2013-01-17 08:16:00
11:36 PM,-27.4,-9999,N/A,29.92,10.0,Calm,Calm,-,N/A,,Clear,0,2013-01-17 08:36:00
11:56 PM,-25.6,-9999,N/A,29.92,10.0,Calm,Calm,-,N/A,,Clear,0,2013-01-17 08:56:00